This is the latest recevied weather packets stored in our database for station/object KD2FGL-13. If no packets are shown the sender has not sent any weather packets the latest 10 day(s).
| Time | Temp. | Humidity | Pressure | Rain* | Wind** | Luminosity | Snow |
|---|---|---|---|---|---|---|---|
| 1777491278 | 21.67° C | 33% | 1013.9 hPa | 0 mm | - | - | - |
| 1777490064 | 22.78° C | 32% | 1013.9 hPa | 0 mm | - | - | - |
| 1777489759 | 22.78° C | 33% | 1013.8 hPa | 0 mm | - | - | - |
| 1777489455 | 22.78° C | 33% | 1013.8 hPa | 0 mm | - | - | - |
| 1777489151 | 22.22° C | 33% | 1014 hPa | 0 mm | - | - | - |
| 1777488848 | 22.22° C | 33% | 1014.1 hPa | 0 mm | - | - | - |
| 1777488240 | 22.22° C | 33% | 1014.3 hPa | 0 mm | - | - | - |
| 1777487936 | 22.22° C | 33% | 1014.2 hPa | 0 mm | - | - | - |
| 1777487328 | 22.22° C | 33% | 1014.2 hPa | 0 mm | - | - | - |
| 1777486111 | 22.22° C | 33% | 1014.6 hPa | 0 mm | - | - | - |
| 1777485200 | 22.22° C | 33% | 1014.8 hPa | 0 mm | - | - | - |
| 1777484897 | 22.22° C | 33% | 1014.7 hPa | 0 mm | - | - | - |
| 1777484593 | 22.78° C | 33% | 1014.7 hPa | 0 mm | - | - | - |
| 1777484289 | 22.22° C | 33% | 1014.6 hPa | 0 mm | - | - | - |
| 1777483073 | 22.22° C | 34% | 1014.7 hPa | 0 mm | - | - | - |
| 1777482465 | 22.22° C | 34% | 1014.9 hPa | 0 mm | - | - | - |
| 1777481857 | 22.22° C | 34% | 1015.1 hPa | 0 mm | - | - | - |
| 1777480945 | 21.67° C | 34% | 1015.6 hPa | 0 mm | - | - | - |
| 1777480338 | 21.67° C | 34% | 1015.5 hPa | 0 mm | - | - | - |
| 1777479727 | 21.67° C | 35% | 1015.6 hPa | 0 mm | - | - | - |
| 1777479424 | 21.67° C | 35% | 1015.7 hPa | 0 mm | - | - | - |
| 1777478209 | 21.67° C | 34% | 1015.9 hPa | 0 mm | - | - | - |
| 1777477601 | 21.67° C | 33% | 1015.9 hPa | 0 mm | - | - | - |
| 1777477297 | 21.67° C | 33% | 1016 hPa | 0 mm | - | - | - |
| 1777476385 | 22.22° C | 33% | 1016 hPa | 0 mm | - | - | - |
* Rain since midnight (hover to see other rain measurements)
** Current wind speed in m/s (hover to see current wind gust speed)